Location: El Carrer d�Abaix
(41.5797°N, 2.1791°E)
Time: 09:49:27
(UTC+00:00)

Cosmos 1340 Rocket - Pass Details

Date: 06 June 2020
Orbit: 530 x 558 km, 81.2° (Epoch: 11 July)

Event Time Altitude Azimuth Distance (km) Brightness Sun altitude
Rises 23:01:54 0° 339° (NNW) 2,747 7.7 -24.7°
Reaches altitude 10° 23:04:17 10° 327° (NNW) 1,850 6.4 -24.8°
Enters shadow 23:07:39 28° 272° (W) 1,061 4.3 -24.9°
